Location: Haulchin
(50.3172°N, 3.4360°E)
Time: 14:41:52
(UTC+00:00)

Aureole 3 - Pass Details

Date: 23 May 2024
Orbit: 378 x 1127 km, 82.5° (Epoch: 18 June)

Event Time Altitude Azimuth Distance (km) Brightness Sun altitude
Exits shadow 01:10:20 37° 254° (WSW) 614 3.2 -16.5°
Maximum altitude 01:10:52 41° 284° (WNW) 564 3.3 -16.4°
Drops below altitude 10° 01:13:45 10° 357° (N) 1,428 6.5 -16.3°
Sets 01:15:52 0° 5° (N) 2,332 8.0 -16.1°
